�������l�o���
Date,Time,MP-1(��Sv/h),MP-2(��Sv/h),MP-3(��Sv/h),MP-4(��Sv/h),MP-5(��Sv/h),MP-6(��Sv/h),MP-7(��Sv/h),MP-8(��Sv/h),����,����(m/s),���J
2020/04/01,00:00,0.685,0.979,0.658,1.187,0.857,0.394,0.686,0.654,��,6.6,��
2020/04/01,00:10,0.684,0.982,0.657,1.189,0.855,0.392,0.688,0.657,��쓌,6.8,��
2020/04/01,00:20,0.685,0.980,0.658,1.190,0.855,0.393,0.688,0.655,��쓌,8.2,��
2020/04/01,00:30,0.684,0.982,0.659,1.189,0.855,0.394,0.687,0.655,��쓌,7.8,��
2020/04/01,00:40,0.685,0.981,0.658,1.190,0.858,0.394,0.687,0.655,��쓌,7.4,��
2020/04/01,00:50,0.685,0.980,0.660,1.191,0.855,0.393,0.688,0.656,��쓌,7.4,��
2020/04/01,01:00,0.685,0.981,0.659,1.188,0.857,0.395,0.687,0.655,��쓌,7.6,��
2020/04/01,01:10,0.685,0.982,0.658,1.189,0.855,0.393,0.688,0.657,��쓌,7.0,��
2020/04/01,01:20,0.684,0.982,0.658,1.190,0.856,0.395,0.690,0.655,��쓌,6.9,��
2020/04/01,01:30,0.684,0.983,0.657,1.189,0.854,0.394,0.688,0.655,��쓌,6.9,��
2020/04/01,01:40,0.686,0.981,0.657,1.188,0.854,0.393,0.686,0.656,��쓌,7.0,��
2020/04/01,01:50,0.685,0.981,0.659,1.190,0.855,0.393,0.688,0.656,��,5.3,��
2020/04/01,02:00,0.686,0.982,0.658,1.190,0.857,0.394,0.688,0.655,��,6.0,��
2020/04/01,02:10,0.685,0.981,0.659,1.190,0.857,0.393,0.690,0.655,��,6.8,��
2020/04/01,02:20,0.686,0.981,0.658,1.190,0.855,0.394,0.690,0.655,��,6.4,��
2020/04/01,02:30,0.685,0.981,0.659,1.191,0.855,0.394,0.690,0.657,��,6.1,��
2020/04/01,02:40,0.686,0.982,0.658,1.189,0.856,0.392,0.689,0.655,��,6.6,��
2020/04/01,02:50,0.686,0.981,0.658,1.188,0.856,0.395,0.688,0.658,��,6.2,��
2020/04/01,03:00,0.685,0.981,0.656,1.190,0.855,0.394,0.689,0.656,��,5.4,��
2020/04/01,03:10,0.686,0.982,0.657,1.191,0.853,0.394,0.690,0.655,��,5.1,��
2020/04/01,03:20,0.687,0.980,0.657,1.188,0.856,0.395,0.690,0.656,��쓌,5.0,��
2020/04/01,03:30,0.687,0.980,0.660,1.192,0.855,0.394,0.689,0.657,��,5.2,��
2020/04/01,03:40,0.686,0.980,0.659,1.188,0.856,0.395,0.689,0.656,��,4.5,��
2020/04/01,03:50,0.687,0.981,0.659,1.190,0.856,0.396,0.689,0.655,��,5.9,��
2020/04/01,04:00,0.686,0.983,0.657,1.189,0.857,0.394,0.690,0.655,��,6.1,��
2020/04/01,04:10,0.685,0.981,0.659,1.189,0.858,0.394,0.690,0.656,��,7.4,��
2020/04/01,04:20,0.686,0.980,0.659,1.189,0.855,0.394,0.690,0.657,��,6.3,��
2020/04/01,04:30,0.683,0.981,0.660,1.191,0.856,0.395,0.690,0.656,��,5.5,��
2020/04/01,04:40,0.686,0.979,0.657,1.189,0.859,0.394,0.690,0.655,��,5.2,��
2020/04/01,04:50,0.685,0.980,0.658,1.191,0.857,0.392,0.689,0.655,��,6.0,��
2020/04/01,05:00,0.686,0.980,0.660,1.188,0.857,0.395,0.690,0.656,��,6.4,��
2020/04/01,05:10,0.684,0.981,0.660,1.192,0.856,0.395,0.688,0.655,��쐼,6.6,��
2020/04/01,05:20,0.687,0.978,0.657,1.191,0.857,0.393,0.690,0.656,��쐼,7.2,��
2020/04/01,05:30,0.687,0.980,0.659,1.191,0.855,0.393,0.691,0.655,��쐼,7.3,��
2020/04/01,05:40,0.686,0.980,0.658,1.189,0.856,0.394,0.690,0.655,��,7.2,��
2020/04/01,05:50,0.688,0.980,0.660,1.190,0.855,0.393,0.688,0.656,��,6.9,��
2020/04/01,06:00,0.687,0.979,0.661,1.191,0.855,0.393,0.691,0.657,��,6.4,��
2020/04/01,06:10,0.685,0.981,0.659,1.192,0.857,0.395,0.691,0.656,��,5.9,��
2020/04/01,06:20,0.685,0.978,0.658,1.190,0.856,0.394,0.688,0.656,��,4.3,��
2020/04/01,06:30,0.687,0.980,0.660,1.188,0.857,0.393,0.691,0.656,��,5.2,��
2020/04/01,06:40,0.685,0.980,0.658,1.188,0.856,0.394,0.689,0.656,��,5.4,��
2020/04/01,06:50,0.687,0.982,0.659,1.190,0.857,0.393,0.689,0.657,��쐼,5.2,��
2020/04/01,07:00,0.687,0.981,0.660,1.191,0.856,0.394,0.690,0.656,��쐼,4.9,��
2020/04/01,07:10,0.689,0.979,0.658,1.191,0.856,0.395,0.689,0.658,��쐼,4.7,��
2020/04/01,07:20,0.688,0.982,0.661,1.190,0.858,0.393,0.689,0.657,��쐼,4.3,��
2020/04/01,07:30,0.687,0.979,0.660,1.191,0.856,0.394,0.689,0.655,��쐼,4.2,�L
2020/04/01,07:40,0.687,0.982,0.659,1.189,0.856,0.395,0.688,0.656,��쐼,3.9,�L
2020/04/01,07:50,0.688,0.979,0.659,1.190,0.858,0.395,0.689,0.655,��쐼,3.8,�L
2020/04/01,08:00,0.687,0.980,0.662,1.191,0.856,0.396,0.688,0.657,��,5.5,�L
2020/04/01,08:10,0.688,0.981,0.659,1.190,0.857,0.395,0.690,0.657,��,5.5,�L
2020/04/01,08:20,0.688,0.980,0.663,1.191,0.858,0.397,0.689,0.657,��,5.2,�L
2020/04/01,08:30,0.689,0.978,0.661,1.188,0.856,0.396,0.687,0.656,��,5.8,��
2020/04/01,08:40,0.689,0.980,0.660,1.193,0.859,0.393,0.688,0.655,��쓌,6.6,��
2020/04/01,08:50,0.688,0.979,0.661,1.192,0.859,0.392,0.690,0.655,��쓌,7.2,��
2020/04/01,09:00,0.688,0.975,0.660,1.191,0.857,0.393,0.689,0.655,��쓌,5.5,��
2020/04/01,09:10,0.688,0.978,0.659,1.191,0.857,0.393,0.690,0.655,��쓌,6.7,��
2020/04/01,09:20,0.687,0.976,0.659,1.192,0.857,0.392,0.688,0.655,��쓌,5.2,��
2020/04/01,09:30,0.686,0.971,0.656,1.192,0.855,0.392,0.688,0.652,��쓌,5.8,��
2020/04/01,09:40,0.686,0.972,0.654,1.190,0.855,0.393,0.689,0.653,��쓌,5.3,�L
2020/04/01,09:50,0.686,0.974,0.655,1.191,0.857,0.391,0.690,0.654,��쓌,5.4,��
2020/04/01,10:00,0.686,0.974,0.655,1.193,0.857,0.392,0.690,0.653,��쓌,4.0,��
2020/04/01,10:10,0.688,0.975,0.656,1.191,0.855,0.393,0.688,0.653,��쓌,5.1,��
2020/04/01,10:20,0.686,0.975,0.659,1.192,0.856,0.394,0.690,0.654,��,4.4,��
2020/04/01,10:30,0.687,0.976,0.659,1.190,0.856,0.392,0.690,0.653,��,5.1,�L
2020/04/01,10:40,0.689,0.974,0.658,1.193,0.857,0.392,0.690,0.654,��쓌,5.0,�L
2020/04/01,10:50,0.688,0.976,0.659,1.194,0.856,0.394,0.691,0.654,��쓌,5.1,��
2020/04/01,11:00,0.688,0.980,0.660,1.194,0.856,0.394,0.688,0.655,��쓌,5.5,�L
2020/04/01,11:10,0.687,0.978,0.659,1.193,0.856,0.395,0.691,0.654,��쓌,4.8,�L
2020/04/01,11:20,0.688,0.980,0.659,1.191,0.857,0.393,0.688,0.657,��쓌,4.3,�L
2020/04/01,11:30,0.687,0.977,0.659,1.195,0.857,0.394,0.688,0.655,��쓌,5.1,�L
2020/04/01,11:40,0.690,0.979,0.660,1.194,0.857,0.395,0.690,0.654,��쓌,4.7,�L
2020/04/01,11:50,0.689,0.982,0.657,1.194,0.857,0.395,0.692,0.654,��쓌,4.6,�L
2020/04/01,12:00,0.691,0.985,0.659,1.194,0.857,0.396,0.691,0.655,��쓌,4.9,��
2020/04/01,12:10,0.688,0.986,0.661,1.194,0.857,0.395,0.692,0.656,��쓌,3.8,�L
2020/04/01,12:20,0.692,0.986,0.660,1.195,0.858,0.395,0.690,0.655,��쓌,3.8,�L
2020/04/01,12:30,0.689,0.984,0.661,1.194,0.859,0.395,0.691,0.655,��쓌,4.1,�L
2020/04/01,12:40,0.689,0.983,0.660,1.194,0.857,0.396,0.690,0.656,��쓌,4.2,�L
2020/04/01,12:50,0.688,0.983,0.658,1.195,0.856,0.395,0.691,0.655,��,4.7,�L
2020/04/01,13:00,0.690,0.983,0.660,1.195,0.856,0.397,0.691,0.655,��쓌,4.1,�L
2020/04/01,13:10,0.688,0.979,0.659,1.195,0.855,0.396,0.689,0.654,��쓌,3.3,�L
2020/04/01,13:20,0.689,0.981,0.659,1.195,0.856,0.395,0.690,0.656,��쓌,3.0,�L
2020/04/01,13:30,0.688,0.980,0.662,1.195,0.854,0.399,0.690,0.653,�쓌,2.0,�L
2020/04/01,13:40,0.689,0.980,0.662,1.194,0.856,0.396,0.690,0.656,�쓌,3.1,�L
2020/04/01,13:50,0.690,0.978,0.662,1.195,0.856,0.397,0.690,0.657,�쓌,2.6,�L
2020/04/01,14:00,0.689,0.978,0.663,1.192,0.855,0.397,0.690,0.656,�쓌,2.9,�L
2020/04/01,14:10,0.690,0.982,0.663,1.194,0.856,0.398,0.690,0.655,�쓌,3.0,��
2020/04/01,14:20,0.689,0.979,0.662,1.193,0.855,0.396,0.688,0.654,���쓌,2.3,�L
2020/04/01,14:30,0.690,0.979,0.661,1.194,0.857,0.398,0.689,0.654,���쓌,2.0,�L
2020/04/01,14:40,0.689,0.976,0.663,1.194,0.856,0.397,0.690,0.656,���쓌,1.7,�L
2020/04/01,14:50,0.690,0.980,0.660,1.193,0.855,0.398,0.689,0.655,���k��,1.7,�L
2020/04/01,15:00,0.689,0.977,0.662,1.193,0.854,0.397,0.690,0.656,���k��,2.0,�L
2020/04/01,15:10,0.689,0.975,0.662,1.190,0.854,0.400,0.689,0.655,�k��,2.8,�L
2020/04/01,15:20,0.687,0.974,0.659,1.190,0.849,0.398,0.687,0.654,�k�k��,3.0,�L
2020/04/01,15:30,0.686,0.971,0.656,1.190,0.849,0.398,0.689,0.653,�k�k��,2.9,�L
2020/04/01,15:40,0.686,0.969,0.656,1.185,0.848,0.396,0.687,0.653,�k�k��,3.5,�L
2020/04/01,15:50,0.684,0.966,0.656,1.183,0.846,0.397,0.687,0.655,�k�k��,3.7,�L
2020/04/01,16:00,0.683,0.963,0.654,1.180,0.846,0.397,0.686,0.652,�k�k��,3.5,�L
2020/04/01,16:10,0.680,0.958,0.654,1.175,0.839,0.395,0.685,0.648,�k,3.3,�L
2020/04/01,16:20,0.678,0.955,0.652,1.172,0.836,0.396,0.684,0.649,�k�k��,3.9,�L
2020/04/01,16:30,0.674,0.948,0.649,1.164,0.834,0.395,0.683,0.648,�k,2.8,�L
2020/04/01,16:40,0.674,0.947,0.649,1.160,0.832,0.394,0.682,0.648,�k,4.8,�L
2020/04/01,16:50,0.674,0.946,0.650,1.157,0.828,0.394,0.679,0.646,���k��,1.7,�L
2020/04/01,17:00,0.671,0.947,0.649,1.155,0.827,0.393,0.678,0.646,���k��,2.5,�L
2020/04/01,17:10,0.672,0.940,0.645,1.153,0.825,0.393,0.678,0.647,��쐼,1.7,�L
2020/04/01,17:20,0.668,0.939,0.647,1.148,0.820,0.391,0.677,0.644,�k,3.1,�L
2020/04/01,17:30,0.670,0.938,0.647,1.148,0.822,0.393,0.675,0.646,�k�k��,3.2,�L
2020/04/01,17:40,0.671,0.941,0.648,1.145,0.822,0.395,0.676,0.645,�k,4.7,�L
2020/04/01,17:50,0.668,0.937,0.644,1.143,0.820,0.392,0.674,0.643,�k,4.0,�L
2020/04/01,18:00,0.666,0.934,0.643,1.140,0.817,0.393,0.673,0.643,�k,5.9,�L
2020/04/01,18:10,0.667,0.933,0.643,1.139,0.815,0.393,0.673,0.641,�k,5.8,�L
2020/04/01,18:20,0.663,0.931,0.642,1.135,0.811,0.391,0.671,0.641,�k,5.0,�L
2020/04/01,18:30,0.666,0.929,0.641,1.131,0.809,0.391,0.670,0.639,�k,4.5,�L
2020/04/01,18:40,0.664,0.927,0.638,1.132,0.808,0.388,0.670,0.640,�k,5.8,�L
2020/04/01,18:50,0.663,0.927,0.639,1.131,0.806,0.390,0.670,0.638,�k�k��,5.4,�L
2020/04/01,19:00,0.662,0.922,0.636,1.129,0.800,0.389,0.669,0.638,�k,5.2,�L
2020/04/01,19:10,0.660,0.923,0.636,1.129,0.798,0.389,0.669,0.637,�k�k��,8.1,�L
2020/04/01,19:20,0.660,0.920,0.636,1.128,0.796,0.390,0.668,0.637,-,CALM,�L
2020/04/01,19:30,0.659,0.919,0.636,1.130,0.796,0.390,0.670,0.636,�k�k��,9.3,�L
2020/04/01,19:40,0.658,0.918,0.636,1.126,0.794,0.391,0.668,0.638,�k�k��,9.9,�L
2020/04/01,19:50,0.658,0.921,0.636,1.127,0.793,0.389,0.669,0.637,�k�k��,9.9,�L
2020/04/01,20:00,0.658,0.917,0.634,1.128,0.791,0.392,0.669,0.638,�k�k��,10.6,�L
2020/04/01,20:10,0.658,0.920,0.633,1.127,0.791,0.389,0.670,0.637,�k�k��,9.3,�L
2020/04/01,20:20,0.661,0.921,0.634,1.126,0.791,0.389,0.669,0.637,�k�k��,9.9,�L
2020/04/01,20:30,0.660,0.923,0.635,1.131,0.791,0.391,0.668,0.638,�k�k��,10.3,�L
2020/04/01,20:40,0.659,0.924,0.634,1.131,0.789,0.390,0.669,0.638,�k�k��,10.2,�L
2020/04/01,20:50,0.660,0.924,0.633,1.131,0.788,0.389,0.669,0.638,�k�k��,11.4,�L
2020/04/01,21:00,0.657,0.917,0.631,1.127,0.783,0.389,0.669,0.640,�k,9.3,�L
2020/04/01,21:10,0.656,0.918,0.630,1.125,0.782,0.389,0.667,0.638,�k�k��,10.9,�L
2020/04/01,21:20,0.656,0.918,0.630,1.124,0.781,0.391,0.667,0.639,�k�k��,11.0,�L
2020/04/01,21:30,0.656,0.918,0.630,1.123,0.782,0.389,0.668,0.638,�k�k��,10.2,�L
2020/04/01,21:40,0.657,0.921,0.627,1.126,0.781,0.389,0.667,0.640,�k�k��,9.6,�L
2020/04/01,21:50,0.660,0.921,0.627,1.129,0.784,0.390,0.669,0.640,�k�k��,10.8,�L
2020/04/01,22:00,0.661,0.925,0.627,1.131,0.784,0.390,0.668,0.642,�k�k��,11.7,�L
2020/04/01,22:10,0.664,0.927,0.626,1.132,0.783,0.393,0.669,0.644,�k�k��,13.0,�L
2020/04/01,22:20,0.663,0.928,0.628,1.135,0.785,0.391,0.669,0.642,�k�k��,12.4,�L
2020/04/01,22:30,0.664,0.930,0.629,1.136,0.788,0.391,0.671,0.644,�k�k��,13.8,�L
2020/04/01,22:40,0.663,0.930,0.628,1.134,0.786,0.393,0.670,0.644,�k�k��,12.0,�L
2020/04/01,22:50,0.664,0.930,0.630,1.138,0.787,0.391,0.670,0.643,�k�k��,13.9,�L
2020/04/01,23:00,0.667,0.934,0.628,1.139,0.787,0.393,0.672,0.645,�k�k��,12.5,�L
2020/04/01,23:10,0.668,0.933,0.630,1.139,0.787,0.391,0.671,0.644,�k�k��,11.8,�L
2020/04/01,23:20,0.664,0.933,0.630,1.141,0.788,0.392,0.673,0.644,�k�k��,11.6,�L
2020/04/01,23:30,0.668,0.936,0.632,1.139,0.790,0.393,0.675,0.644,�k�k��,14.1,�L
2020/04/01,23:40,0.666,0.937,0.632,1.141,0.788,0.393,0.673,0.644,�k��,10.6,�L
2020/04/01,23:50,0.667,0.939,0.632,1.143,0.789,0.392,0.674,0.644,�k��,12.7,�L
